| time (UTC) | temp F | wind direction | speed knots | gust knots | rain 1hr in | rain 24hr in | rain mn in | humidity % | barometer mb |
| 20260503235748 | 58 | 265 | 0.0 | 0.0 | 0.00 | 0.00 | 0.00 | 52 | 1016.2 |
| 20260503235243 | 59 | 265 | 0.0 | 0.0 | 0.00 | 0.00 | 0.00 | 51 | 1016.2 |
| 20260503234736 | 59 | 265 | 0.0 | 0.0 | 0.00 | 0.00 | 0.00 | 51 | 1016.1 |
| 20260503234450 | 60 | 265 | 0.0 | 0.0 | 0.00 | 0.00 | 0.00 | 49 | 1016.1 |
| 20260503233950 | 61 | 265 | 0.0 | 0.0 | 0.00 | 0.00 | 0.00 | 48 | 1016.1 |
| 20260503233219 | 61 | 265 | 0.0 | 0.0 | 0.00 | 0.00 | 0.00 | 48 | 1016.1 |
| 20260503232714 | 62 | 265 | 0.0 | 0.0 | 0.00 | 0.00 | 0.00 | 46 | 1016.1 |
| 20260503232207 | 62 | 265 | 0.0 | 1.7 | 0.00 | 0.00 | 0.00 | 45 | 1016.1 |
| 20260503231701 | 63 | 265 | 0.9 | 2.6 | 0.00 | 0.00 | 0.00 | 44 | 1016.1 |
| 20260503231155 | 63 | 265 | 1.7 | 6.1 | 0.00 | 0.00 | 0.00 | 43 | 1016.1 |
| 20260503230650 | 63 | 257 | 1.7 | 5.2 | 0.00 | 0.00 | 0.00 | 43 | 1016.0 |
| 20260503230142 | 63 | 243 | 1.7 | 3.5 | 0.00 | 0.00 | 0.00 | 43 | 1015.9 |
| 20260503225636 | 64 | 233 | 1.7 | 5.2 | 0.00 | 0.00 | 0.00 | 40 | 1016.0 |
| 20260503225130 | 64 | 252 | 2.6 | 5.2 | 0.00 | 0.00 | 0.00 | 37 | 1015.9 |
| 20260503224625 | 64 | 298 | 1.7 | 5.2 | 0.00 | 0.00 | 0.00 | 37 | 1015.9 |
| 20260503224118 | 64 | 272 | 1.7 | 6.1 | 0.00 | 0.00 | 0.00 | 39 | 1015.9 |
| 20260503223612 | 64 | 282 | 2.6 | 8.7 | 0.00 | 0.00 | 0.00 | 41 | 1016.1 |
| 20260503223108 | 64 | 264 | 4.3 | 9.6 | 0.00 | 0.00 | 0.00 | 37 | 1016.1 |
| 20260503222601 | 64 | 265 | 4.3 | 10.4 | 0.00 | 0.00 | 0.00 | 35 | 1016.1 |
| 20260503222056 | 65 | 276 | 3.5 | 12.2 | 0.00 | 0.00 | 0.00 | 35 | 1016.0 |
| 20260503222036 | 65 | 251 | 3.5 | 12.2 | 0.00 | 0.00 | 0.00 | 37 | 1016.1 |
| 20260503221043 | 65 | 274 | 4.3 | 8.7 | 0.00 | 0.00 | 0.00 | 36 | 1016.1 |
| 20260503220536 | 65 | 262 | 4.3 | 11.3 | 0.00 | 0.00 | 0.00 | 36 | 1016.1 |
| 20260503220251 | 65 | 247 | 3.5 | 11.3 | 0.00 | 0.00 | 0.00 | 36 | 1016.1 |
| 20260503215525 | 64 | 290 | 2.6 | 7.0 | 0.00 | 0.00 | 0.00 | 36 | 1015.9 |
| 20260503215020 | 64 | 12 | 4.3 | 10.4 | 0.00 | 0.00 | 0.00 | 36 | 1016.0 |
| 20260503214513 | 64 | 280 | 5.2 | 10.4 | 0.00 | 0.00 | 0.00 | 37 | 1015.9 |
| 20260503214008 | 65 | 285 | 4.3 | 9.6 | 0.00 | 0.00 | 0.00 | 35 | 1015.8 |
| 20260503213720 | 65 | 242 | 3.5 | 11.3 | 0.00 | 0.00 | 0.00 | 36 | 1015.8 |
| 20260503212955 | 65 | 286 | 4.3 | 11.3 | 0.00 | 0.00 | 0.00 | 37 | 1015.8 |
| 20260503212449 | 64 | 263 | 4.3 | 9.6 | 0.00 | 0.00 | 0.00 | 35 | 1015.8 |
| 20260503211943 | 65 | 257 | 2.6 | 8.7 | 0.00 | 0.00 | 0.00 | 36 | 1015.9 |
| 20260503211658 | 64 | 275 | 2.6 | 8.7 | 0.00 | 0.00 | 0.00 | 37 | 1015.8 |
| 20260503210931 | 64 | 199 | 4.3 | 9.6 | 0.00 | 0.00 | 0.00 | 34 | 1015.9 |
| 20260503210425 | 64 | 210 | 5.2 | 9.6 | 0.00 | 0.00 | 0.00 | 35 | 1015.9 |
| 20260503205918 | 64 | 182 | 7.0 | 12.2 | 0.00 | 0.00 | 0.00 | 35 | 1015.9 |
| 20260503205412 | 64 | 307 | 5.2 | 11.3 | 0.00 | 0.00 | 0.00 | 35 | 1016.0 |
| 20260503204906 | 64 | 298 | 2.6 | 9.6 | 0.00 | 0.00 | 0.00 | 38 | 1015.9 |
| 20260503204401 | 64 | 170 | 3.5 | 10.4 | 0.00 | 0.00 | 0.00 | 37 | 1015.8 |
| 20260503203854 | 64 | 282 | 5.2 | 10.4 | 0.00 | 0.00 | 0.00 | 36 | 1015.9 |
| 20260503203352 | 64 | 229 | 5.2 | 13.0 | 0.00 | 0.00 | 0.00 | 38 | 1015.9 |
| 20260503202850 | 64 | 331 | 3.5 | 13.0 | 0.00 | 0.00 | 0.00 | 37 | 1015.9 |
| 20260503202352 | 63 | 290 | 3.5 | 8.7 | 0.00 | 0.00 | 0.00 | 37 | 1015.8 |
| 20260503201849 | 63 | 288 | 3.5 | 8.7 | 0.00 | 0.00 | 0.00 | 36 | 1015.8 |
| 20260503201612 | 63 | 299 | 5.2 | 10.4 | 0.00 | 0.00 | 0.00 | 35 | 1015.8 |
| 20260503200848 | 63 | 215 | 6.1 | 13.0 | 0.00 | 0.00 | 0.00 | 34 | 1015.9 |
| 20260503200347 | 64 | 261 | 6.1 | 13.0 | 0.00 | 0.00 | 0.00 | 35 | 1016.1 |
| 20260503195847 | 64 | 226 | 5.2 | 10.4 | 0.00 | 0.00 | 0.00 | 36 | 1016.1 |
| 20260503195348 | 63 | 271 | 3.5 | 9.6 | 0.00 | 0.00 | 0.00 | 37 | 1016.2 |
| 20260503194845 | 62 | 269 | 4.3 | 10.4 | 0.00 | 0.00 | 0.00 | 37 | 1016.3 |
| 20260503194345 | 62 | 251 | 5.2 | 11.3 | 0.00 | 0.00 | 0.00 | 36 | 1016.3 |
| 20260503193845 | 63 | 301 | 5.2 | 11.3 | 0.00 | 0.00 | 0.00 | 35 | 1016.4 |
| 20260503193343 | 63 | 182 | 6.1 | 13.9 | 0.00 | 0.00 | 0.00 | 37 | 1016.3 |
| 20260503193107 | 63 | 269 | 5.2 | 13.9 | 0.00 | 0.00 | 0.00 | 35 | 1016.3 |
| 20260503192341 | 62 | 252 | 5.2 | 11.3 | 0.00 | 0.00 | 0.00 | 35 | 1016.4 |
| 20260503192325 | 62 | 120 | 5.2 | 9.6 | 0.00 | 0.00 | 0.00 | 38 | 1016.5 |
| 20260503191352 | 62 | 278 | 5.2 | 11.3 | 0.00 | 0.00 | 0.00 | 38 | 1016.7 |
| 20260503191101 | 61 | 303 | 7.0 | 11.3 | 0.00 | 0.00 | 0.00 | 40 | 1016.8 |
| 20260503190339 | 62 | 320 | 6.1 | 11.3 | 0.00 | 0.00 | 0.00 | 35 | 1016.7 |
| 20260503185838 | 62 | 248 | 5.2 | 12.2 | 0.00 | 0.00 | 0.00 | 35 | 1016.7 |
| 20260503185338 | 62 | 309 | 5.2 | 12.2 | 0.00 | 0.00 | 0.00 | 38 | 1016.9 |
| 20260503184837 | 62 | 336 | 5.2 | 13.9 | 0.00 | 0.00 | 0.00 | 34 | 1016.9 |
| 20260503184338 | 62 | 237 | 5.2 | 13.9 | 0.00 | 0.00 | 0.00 | 38 | 1016.8 |
| 20260503183837 | 62 | 283 | 5.2 | 11.3 | 0.00 | 0.00 | 0.00 | 41 | 1017.1 |
| 20260503183339 | 62 | 269 | 4.3 | 11.3 | 0.00 | 0.00 | 0.00 | 34 | 1017.1 |
| 20260503182833 | 62 | 276 | 6.1 | 13.9 | 0.00 | 0.00 | 0.00 | 38 | 1017.2 |
| 20260503182817 | 62 | 290 | 7.0 | 13.9 | 0.00 | 0.00 | 0.00 | 37 | 1017.2 |
| 20260503181833 | 62 | 287 | 6.1 | 13.9 | 0.00 | 0.00 | 0.00 | 36 | 1017.2 |
| 20260503181334 | 62 | 210 | 5.2 | 11.3 | 0.00 | 0.00 | 0.00 | 39 | 1017.1 |
| 20260503180833 | 61 | 285 | 6.1 | 13.9 | 0.00 | 0.00 | 0.00 | 36 | 1017.2 |
| 20260503180334 | 61 | 280 | 7.0 | 13.9 | 0.00 | 0.00 | 0.00 | 39 | 1017.2 |
| 20260503175833 | 62 | 309 | 5.2 | 13.9 | 0.00 | 0.00 | 0.00 | 36 | 1017.3 |
| 20260503175559 | 61 | 271 | 5.2 | 11.3 | 0.00 | 0.00 | 0.00 | 40 | 1017.2 |
| 20260503174834 | 61 | 251 | 5.2 | 12.2 | 0.00 | 0.00 | 0.00 | 42 | 1017.4 |
| 20260503174334 | 61 | 235 | 6.1 | 13.9 | 0.00 | 0.00 | 0.00 | 39 | 1017.3 |
| 20260503173833 | 61 | 267 | 5.2 | 13.9 | 0.00 | 0.00 | 0.00 | 38 | 1017.4 |
| 20260503173334 | 61 | 280 | 4.3 | 10.4 | 0.00 | 0.00 | 0.00 | 43 | 1017.4 |
| 20260503173053 | 60 | 260 | 4.3 | 9.6 | 0.00 | 0.00 | 0.00 | 41 | 1017.4 |
| 20260503172547 | 59 | 286 | 6.1 | 12.2 | 0.00 | 0.00 | 0.00 | 44 | 1017.6 |
| 20260503172435 | 60 | 282 | 5.2 | 12.2 | 0.00 | 0.00 | 0.00 | 46 | 1017.6 |
| 20260503171333 | 59 | 305 | 7.0 | 13.9 | 0.00 | 0.00 | 0.00 | 43 | 1017.6 |
| 20260503170832 | 59 | 289 | 7.0 | 13.9 | 0.00 | 0.00 | 0.00 | 42 | 1017.7 |
| 20260503170347 | 60 | 253 | 4.3 | 12.2 | 0.00 | 0.00 | 0.00 | 43 | 1017.7 |
| 20260503150633 | 56 | 261 | 6.1 | 12.2 | 0.00 | 0.01 | 0.00 | 46 | 1018.4 |
| 20260503150127 | 56 | 282 | 5.2 | 10.4 | 0.00 | 0.01 | 0.00 | 47 | 1018.4 |
| 20260503131019 | 53 | 292 | 4.3 | 10.4 | 0.00 | 0.02 | 0.00 | 55 | 1017.9 |
| 20260503130740 | 53 | 210 | 5.2 | 13.9 | 0.00 | 0.02 | 0.00 | 56 | 1018.0 |
| 20260503110827 | 48 | 274 | 1.7 | 4.3 | 0.00 | 0.02 | 0.00 | 68 | 1016.9 |
| 20260503110548 | 47 | 300 | 2.6 | 6.1 | 0.00 | 0.02 | 0.00 | 68 | 1016.9 |
| 20260503090312 | 48 | 294 | 2.6 | 7.8 | 0.00 | 0.02 | 0.00 | 74 | 1014.8 |
| 20260503081236 | 47 | 274 | 1.7 | 3.5 | 0.00 | 0.02 | 0.00 | 82 | 1014.2 |
| 20260503080731 | 47 | 260 | 1.7 | 2.6 | 0.00 | 0.02 | 0.00 | 83 | 1014.1 |
| 20260503080224 | 47 | 269 | 0.9 | 2.6 | 0.00 | 0.02 | 0.00 | 83 | 1014.0 |
| 20260503072642 | 47 | 279 | 0.9 | 2.6 | 0.00 | 0.02 | 0.00 | 84 | 1013.3 |
| 20260503072355 | 47 | 278 | 0.9 | 1.7 | 0.00 | 0.02 | 0.00 | 84 | 1013.3 |
| 20260503071630 | 47 | 278 | 1.7 | 2.6 | 0.00 | 0.02 | 0.00 | 84 | 1013.2 |
| 20260503071124 | 47 | 278 | 1.7 | 2.6 | 0.00 | 0.02 | 0.00 | 85 | 1013.2 |
| 20260503070618 | 47 | 288 | 0.9 | 2.6 | 0.00 | 0.02 | 0.00 | 85 | 1013.1 |
| 20260503070114 | 47 | 287 | 0.9 | 2.6 | 0.00 | 0.02 | 0.00 | 85 | 1013.1 |
| 20260503054442 | 45 | 309 | 0.0 | 0.0 | 0.00 | 0.02 | 0.00 | 88 | 1013.0 |
| 20260503053935 | 45 | 311 | 0.0 | 0.0 | 0.00 | 0.02 | 0.00 | 88 | 1013.0 |
| 20260503053444 | 45 | 311 | 0.0 | 0.0 | 0.00 | 0.02 | 0.00 | 88 | 1013.0 |
| 20260503052924 | 45 | 311 | 0.0 | 0.0 | 0.00 | 0.02 | 0.00 | 87 | 1013.0 |
| 20260503052418 | 45 | 310 | 0.0 | 0.0 | 0.00 | 0.02 | 0.00 | 87 | 1013.0 |
| 20260503051912 | 45 | 311 | 0.0 | 0.0 | 0.00 | 0.02 | 0.00 | 87 | 1013.0 |
| 20260503051407 | 45 | 311 | 0.0 | 0.0 | 0.00 | 0.02 | 0.00 | 86 | 1013.0 |
| 20260503050900 | 45 | 311 | 0.0 | 0.0 | 0.00 | 0.02 | 0.00 | 86 | 1013.0 |
| 20260503050840 | 45 | 311 | 0.0 | 0.0 | 0.00 | 0.02 | 0.00 | 86 | 1013.0 |
| 20260503045856 | 46 | 311 | 0.0 | 0.0 | 0.00 | 0.02 | 0.00 | 86 | 1013.1 |
| 20260503045357 | 46 | 311 | 0.0 | 0.0 | 0.00 | 0.02 | 0.00 | 86 | 1013.0 |
| 20260503044858 | 46 | 311 | 0.0 | 0.0 | 0.00 | 0.02 | 0.00 | 86 | 1013.0 |
| 20260503044358 | 46 | 311 | 0.0 | 0.0 | 0.00 | 0.02 | 0.00 | 86 | 1013.1 |
| 20260503043857 | 46 | 311 | 0.0 | 0.0 | 0.00 | 0.02 | 0.00 | 86 | 1013.0 |
| 20260503043355 | 47 | 311 | 0.0 | 0.0 | 0.00 | 0.02 | 0.00 | 86 | 1013.1 |
| 20260503042853 | 47 | 311 | 0.0 | 0.0 | 0.00 | 0.02 | 0.00 | 86 | 1013.3 |
| 20260503042354 | 47 | 310 | 0.0 | 0.0 | 0.00 | 0.02 | 0.00 | 85 | 1013.2 |
| 20260503042117 | 47 | 311 | 0.0 | 0.0 | 0.00 | 0.02 | 0.00 | 86 | 1013.1 |
| 20260503041354 | 47 | 311 | 0.0 | 0.0 | 0.00 | 0.02 | 0.00 | 85 | 1012.9 |
| 20260503040853 | 47 | 311 | 0.0 | 0.0 | 0.00 | 0.02 | 0.00 | 85 | 1012.9 |
| 20260503040351 | 48 | 311 | 0.0 | 0.0 | 0.00 | 0.02 | 0.00 | 85 | 1013.2 |
| 20260503035849 | 48 | 310 | 0.0 | 0.0 | 0.00 | 0.02 | 0.02 | 85 | 1013.1 |
| 20260503035349 | 48 | 311 | 0.0 | 0.0 | 0.00 | 0.02 | 0.02 | 85 | 1012.9 |
| 20260503034851 | 48 | 311 | 0.0 | 0.0 | 0.00 | 0.02 | 0.02 | 85 | 1013.0 |
| 20260503034342 | 48 | 311 | 0.0 | 0.0 | 0.00 | 0.02 | 0.02 | 85 | 1013.2 |
| 20260503034100 | 48 | 311 | 0.0 | 0.0 | 0.00 | 0.02 | 0.02 | 85 | 1013.3 |
| 20260503033331 | 48 | 311 | 0.0 | 0.0 | 0.00 | 0.02 | 0.02 | 85 | 1013.1 |
| 20260503033045 | 49 | 311 | 0.0 | 0.0 | 0.00 | 0.02 | 0.02 | 85 | 1013.1 |
| 20260503032543 | 49 | 311 | 0.0 | 0.0 | 0.00 | 0.02 | 0.02 | 85 | 1012.9 |
| 20260503031814 | 49 | 311 | 0.0 | 0.0 | 0.00 | 0.02 | 0.02 | 85 | 1013.0 |
| 20260503031307 | 49 | 313 | 0.0 | 0.0 | 0.00 | 0.02 | 0.02 | 85 | 1012.9 |
| 20260503030800 | 49 | 311 | 0.0 | 0.0 | 0.00 | 0.02 | 0.02 | 85 | 1012.9 |
| 20260503030256 | 49 | 311 | 0.0 | 0.0 | 0.00 | 0.02 | 0.02 | 85 | 1013.0 |
| 20260503025748 | 49 | 311 | 0.0 | 0.0 | 0.00 | 0.02 | 0.02 | 84 | 1013.0 |
| 20260503025243 | 49 | 311 | 0.0 | 0.0 | 0.00 | 0.02 | 0.02 | 84 | 1012.9 |
| 20260503024736 | 50 | 311 | 0.0 | 0.0 | 0.00 | 0.02 | 0.02 | 84 | 1012.9 |
| 20260503024233 | 50 | 311 | 0.0 | 0.0 | 0.00 | 0.02 | 0.02 | 84 | 1012.9 |
| 20260503024205 | 50 | 311 | 0.0 | 0.0 | 0.00 | 0.02 | 0.02 | 84 | 1012.9 |
| 20260503023220 | 50 | 311 | 0.0 | 0.0 | 0.00 | 0.02 | 0.02 | 83 | 1013.1 |
| 20260503022712 | 50 | 310 | 0.0 | 0.0 | 0.00 | 0.02 | 0.02 | 83 | 1013.1 |
| 20260503022207 | 50 | 311 | 0.0 | 0.0 | 0.00 | 0.02 | 0.02 | 83 | 1013.2 |
| 20260503021700 | 50 | 310 | 0.0 | 0.0 | 0.00 | 0.02 | 0.02 | 83 | 1013.2 |
| 20260503021154 | 50 | 311 | 0.0 | 0.0 | 0.00 | 0.02 | 0.02 | 83 | 1013.1 |
| 20260503020648 | 50 | 311 | 0.0 | 0.0 | 0.00 | 0.02 | 0.02 | 83 | 1013.1 |
| 20260503020142 | 50 | 310 | 0.0 | 0.0 | 0.00 | 0.02 | 0.02 | 83 | 1013.0 |
| 20260503015637 | 51 | 311 | 0.0 | 0.0 | 0.00 | 0.02 | 0.02 | 82 | 1013.0 |
| 20260503015613 | 51 | 311 | 0.0 | 0.0 | 0.00 | 0.02 | 0.02 | 82 | 1013.0 |
| 20260503014625 | 51 | 311 | 0.0 | 0.0 | 0.00 | 0.02 | 0.02 | 82 | 1013.1 |
| 20260503014120 | 51 | 310 | 0.0 | 0.0 | 0.00 | 0.02 | 0.02 | 83 | 1012.9 |
| 20260503013613 | 51 | 311 | 0.0 | 0.0 | 0.00 | 0.02 | 0.02 | 83 | 1013.0 |
| 20260503013106 | 51 | 311 | 0.0 | 0.0 | 0.00 | 0.02 | 0.02 | 82 | 1013.0 |
| 20260503012600 | 51 | 311 | 0.0 | 0.0 | 0.00 | 0.02 | 0.02 | 82 | 1012.8 |
| 20260503012055 | 51 | 310 | 0.0 | 0.0 | 0.00 | 0.02 | 0.02 | 82 | 1012.7 |
| 20260503011549 | 51 | 308 | 0.0 | 0.0 | 0.00 | 0.02 | 0.02 | 82 | 1012.7 |
| 20260503011307 | 51 | 310 | 0.0 | 0.0 | 0.00 | 0.02 | 0.02 | 82 | 1012.6 |
| 20260503010537 | 52 | 310 | 0.0 | 0.0 | 0.00 | 0.02 | 0.02 | 82 | 1012.7 |
| 20260503010031 | 52 | 310 | 0.0 | 0.0 | 0.00 | 0.02 | 0.02 | 81 | 1012.6 |
| 20260503005526 | 52 | 310 | 0.0 | 0.0 | 0.00 | 0.02 | 0.02 | 81 | 1012.5 |
| 20260503005238 | 52 | 310 | 0.0 | 0.0 | 0.00 | 0.02 | 0.02 | 80 | 1012.5 |
| 20260503004514 | 52 | 311 | 0.0 | 0.0 | 0.00 | 0.02 | 0.02 | 80 | 1012.4 |
| 20260503004007 | 52 | 310 | 0.0 | 0.0 | 0.00 | 0.02 | 0.02 | 79 | 1012.3 |
| 20260503003719 | 53 | 310 | 0.0 | 0.0 | 0.00 | 0.02 | 0.02 | 79 | 1012.2 |
| 20260503002955 | 53 | 310 | 0.0 | 0.0 | 0.00 | 0.02 | 0.02 | 78 | 1012.1 |
| 20260503002449 | 53 | 310 | 0.0 | 0.0 | 0.00 | 0.02 | 0.02 | 78 | 1012.2 |
| 20260503001943 | 53 | 310 | 0.0 | 0.0 | 0.00 | 0.02 | 0.02 | 78 | 1012.1 |
| 20260503001437 | 53 | 310 | 0.0 | 0.0 | 0.00 | 0.02 | 0.02 | 77 | 1012.1 |
| 20260503000930 | 53 | 310 | 0.0 | 0.0 | 0.00 | 0.02 | 0.02 | 77 | 1012.1 |
| 20260503000917 | 54 | 310 | 0.0 | 0.0 | 0.00 | 0.02 | 0.02 | 76 | 1012.0 |